{"data":{"norad_id":58648,"epoch":"2026-05-25T02:26:18.901824Z","epoch_age_seconds":62921,"freshness":"FRESH","line1":"1 58648U 23205D   26145.10160766  .00005156  00000+0  19965-3 0  9997","line2":"2 58648  97.3414 166.2542 0009437  61.9659 298.2534 15.26572635133985","mean_motion":15.26572635,"eccentricity":0.0009437,"inclination_deg":97.3414,"raan_deg":166.2542,"arg_perigee_deg":61.9659,"mean_anomaly_deg":298.2534,"bstar":0.00019965,"rev_number":13398,"period_min":94.328954088713,"perigee_km":479.589418395,"apogee_km":492.54491734144,"semimajor_km":6864.2041678682,"source":"CELESTRAK","updated_at":"2026-05-25T13:38:12.258255Z"}}